EDW35Y MDPC-LSZH

Flight info

Callsign EDW35Y
Flight time N/A
Altitude 35000
Route CHUMA2W CHUMA DCT OPAUL/M083F350 DCT FIVZE/M083F370 DCT 32N050W 3630N04000W 41N030W 44N020W/M083F390 DCT PASAS DCT SIVIR DCT RIVAK/N0483F390 DCT KOLEK/N0479F400 DCT AKEMO DCT GIGOT DCT OBATO DCT RESMI/N0473F410 DCT TEPRI DCT POGZI DCT GELTA DCT MANAG DCT PEVIT DCT BLM
Aircraft A343/H-SDE2E3FGHIJ4J5M1RWXY/LB1D1

Departure

Time N/A
Airport Punta Cana International Airport (MDPC)

Arrival

Time 2026-05-04 16:18
Airport Zürich Airport (LSZH)
Time Latitude Longitude Altitude Speed Heading
2026-05-04 15:41 48.45216 4.17833 39942 ft 479 kts 121°
2026-05-04 15:41 48.43656 4.22275 39942 ft 479 kts 121°
2026-05-04 15:42 48.40526 4.31141 39933 ft 479 kts 121°
2026-05-04 15:42 48.37415 4.40013 39956 ft 479 kts 121°
2026-05-04 15:43 48.34327 4.48844 39954 ft 479 kts 121°
2026-05-04 15:43 48.31232 4.57682 39956 ft 479 kts 121°
2026-05-04 15:44 48.28638 4.65065 39961 ft 479 kts 121°
2026-05-04 15:44 48.25514 4.73925 39958 ft 480 kts 121°
2026-05-04 15:45 48.22379 4.82784 39966 ft 480 kts 121°
2026-05-04 15:45 48.19242 4.91620 39969 ft 480 kts 121°
2026-05-04 15:46 48.16094 5.00455 39976 ft 480 kts 121°
2026-05-04 15:46 48.12959 5.09228 39974 ft 480 kts 121°
2026-05-04 15:47 48.10095 5.18276 39985 ft 485 kts 111°
2026-05-04 15:47 48.08093 5.27944 39978 ft 488 kts 109°
2026-05-04 15:48 48.06246 5.37712 39989 ft 488 kts 109°
2026-05-04 15:48 48.03482 5.52298 39995 ft 488 kts 109°
2026-05-04 15:49 48.02538 5.57203 39835 ft 488 kts 109°
2026-05-04 15:49 48.01595 5.62070 39609 ft 487 kts 109°
2026-05-04 15:49 48.00649 5.66933 39382 ft 487 kts 109°
2026-05-04 15:49 47.99701 5.71791 39153 ft 487 kts 109°
2026-05-04 15:50 47.98762 5.76590 38935 ft 487 kts 109°
2026-05-04 15:50 47.97812 5.81436 38720 ft 487 kts 110°
2026-05-04 15:50 47.96860 5.86279 38451 ft 486 kts 110°
2026-05-04 15:50 47.95903 5.91140 38164 ft 486 kts 110°
2026-05-04 15:51 47.94945 5.95993 37868 ft 485 kts 110°
2026-05-04 15:51 47.93989 6.00826 37594 ft 485 kts 110°
2026-05-04 15:51 47.93043 6.05594 37322 ft 484 kts 110°
2026-05-04 15:51 47.92087 6.10403 37055 ft 483 kts 110°
2026-05-04 15:52 47.91128 6.15216 36788 ft 483 kts 111°
2026-05-04 15:52 47.90167 6.20023 36530 ft 482 kts 111°
2026-05-04 15:52 47.89206 6.24821 36267 ft 482 kts 111°
2026-05-04 15:52 47.88254 6.29563 36009 ft 481 kts 111°
2026-05-04 15:53 47.87289 6.34356 35769 ft 481 kts 111°
2026-05-04 15:53 47.86334 6.39089 35506 ft 480 kts 111°
2026-05-04 15:53 47.85364 6.43883 35129 ft 479 kts 111°
2026-05-04 15:53 47.84414 6.48568 34494 ft 479 kts 112°
2026-05-04 15:54 47.83448 6.53321 33805 ft 479 kts 112°
2026-05-04 15:54 47.82479 6.58070 33027 ft 480 kts 112°
2026-05-04 15:54 47.81508 6.62822 32198 ft 481 kts 111°
2026-05-04 15:54 47.80531 6.67587 31400 ft 482 kts 111°
2026-05-04 15:55 47.79550 6.72358 30631 ft 482 kts 111°
2026-05-04 15:55 47.78577 6.77090 29781 ft 482 kts 111°
2026-05-04 15:55 47.77591 6.81867 28897 ft 482 kts 111°
2026-05-04 15:55 47.76607 6.86632 28259 ft 477 kts 111°
2026-05-04 15:56 47.75645 6.91284 27675 ft 470 kts 111°
2026-05-04 15:56 47.74682 6.95928 27092 ft 465 kts 111°
2026-05-04 15:56 47.73730 7.00503 26491 ft 461 kts 111°
2026-05-04 15:56 47.72795 7.04986 25938 ft 457 kts 111°
2026-05-04 15:57 47.71856 7.09480 25338 ft 453 kts 111°
2026-05-04 15:57 47.70921 7.13941 24751 ft 450 kts 111°
2026-05-04 15:57 47.69993 7.18355 24175 ft 446 kts 111°
2026-05-04 15:57 47.69074 7.22735 23656 ft 443 kts 111°
2026-05-04 15:58 47.68153 7.27088 23030 ft 439 kts 111°
2026-05-04 15:58 47.67247 7.31354 22453 ft 435 kts 111°
2026-05-04 15:58 47.66339 7.35631 21879 ft 431 kts 111°
2026-05-04 15:58 47.65442 7.39853 21309 ft 427 kts 111°
2026-05-04 15:59 47.64546 7.44065 20744 ft 423 kts 111°
2026-05-04 15:59 47.63664 7.48204 20195 ft 419 kts 111°
2026-05-04 15:59 47.62792 7.52262 19793 ft 413 kts 111°
2026-05-04 15:59 47.61848 7.56321 19526 ft 415 kts 112°
2026-05-04 16:00 47.60895 7.60324 19256 ft 415 kts 112°
2026-05-04 16:00 47.59930 7.64390 18972 ft 413 kts 112°
2026-05-04 16:00 47.58982 7.68404 18687 ft 411 kts 112°
2026-05-04 16:00 47.58050 7.72357 18392 ft 409 kts 112°
2026-05-04 16:01 47.57115 7.76333 18087 ft 407 kts 112°
2026-05-04 16:01 47.56185 7.80281 17790 ft 405 kts 112°
2026-05-04 16:01 47.55257 7.84203 17517 ft 403 kts 112°
2026-05-04 16:01 47.54331 7.88113 17222 ft 401 kts 112°
2026-05-04 16:02 47.53409 7.92006 16922 ft 399 kts 112°
2026-05-04 16:02 47.52491 7.95875 16638 ft 398 kts 112°
2026-05-04 16:02 47.50651 8.03606 16081 ft 398 kts 112°
2026-05-04 16:03 47.49898 8.07500 15839 ft 400 kts 99°
2026-05-04 16:03 47.49956 8.11632 15733 ft 400 kts 87°
2026-05-04 16:03 47.49760 8.15635 15245 ft 389 kts 107°
2026-05-04 16:03 47.48637 8.19221 14646 ft 380 kts 129°
2026-05-04 16:04 47.46808 8.21981 14118 ft 373 kts 142°
2026-05-04 16:04 47.42884 8.26855 13021 ft 367 kts 141°
2026-05-04 16:04 47.40990 8.29333 12631 ft 360 kts 140°
2026-05-04 16:05 47.39162 8.31787 12468 ft 348 kts 140°
2026-05-04 16:05 47.37435 8.34203 12382 ft 337 kts 135°
2026-05-04 16:05 47.35227 8.40039 12200 ft 323 kts 104°
2026-05-04 16:06 47.34894 8.43280 12099 ft 315 kts 98°
2026-05-04 16:06 47.34322 8.51526 11583 ft 299 kts 98°
2026-05-04 16:07 47.34040 8.55593 11213 ft 295 kts 98°
2026-05-04 16:07 47.33403 8.64520 10346 ft 290 kts 98°
2026-05-04 16:08 47.33191 8.67458 10060 ft 288 kts 99°
2026-05-04 16:08 47.32557 8.76194 9032 ft 285 kts 98°
2026-05-04 16:09 47.32152 8.82023 8377 ft 283 kts 95°
2026-05-04 16:09 47.33132 8.87531 7697 ft 289 kts 51°
2026-05-04 16:10 47.36741 8.89504 6981 ft 289 kts 348°
2026-05-04 16:11 47.41534 8.84559 5944 ft 277 kts 319°
2026-05-04 16:11 47.42966 8.82746 5313 ft 269 kts 312°
2026-05-04 16:12 47.44358 8.75483 4108 ft 232 kts 272°
2026-05-04 16:12 47.44501 8.69173 3215 ft 185 kts 245°
2026-05-04 16:13 47.42488 8.67895 3006 ft 165 kts 163°
2026-05-04 16:13 47.41572 8.70737 2989 ft 170 kts 70°
2026-05-04 16:14 47.43374 8.72227 2998 ft 153 kts 338°
2026-05-04 16:14 47.44576 8.69909 2988 ft 147 kts 289°
2026-05-04 16:15 47.45035 8.65515 2723 ft 135 kts 277°
2026-05-04 16:16 47.45247 8.62795 2336 ft 133 kts 275°
2026-05-04 16:16 47.45539 8.58689 1798 ft 133 kts 277°
2026-05-04 16:17 47.45726 8.56104 1418 ft 114 kts 276°
2026-05-04 16:18 47.45870 8.54772 1399 ft 9 kts 336°
2026-05-04 16:18 47.45914 8.54800 1402 ft 7 kts 55°
2026-05-04 16:19 47.45910 8.55015 1398 ft 7 kts 95°
2026-05-04 16:19 47.45939 8.55137 1404 ft 9 kts 36°
2026-05-04 16:20 47.45992 8.55414 1406 ft 7 kts 41°
2026-05-04 16:20 47.46058 8.55433 1409 ft 0 kts